| time (UTC) | temp F | wind direction | speed MPH | gust MPH | rain 1hr in | rain 24hr in | rain mn in | humidity % | barometer mb |
| 20260902000745 | 55 | 262 | 0.0 | 0.0 | 0.00 | 0.00 | 0.00 | 87 | 1021.1 |
| 20260901235745 | 55 | 262 | 0.0 | 0.0 | 0.00 | 0.00 | 0.00 | 87 | 1021.2 |
| 20260901234745 | 55 | 262 | 0.0 | 0.0 | 0.00 | 0.00 | 0.00 | 87 | 1021.3 |
| 20260901233744 | 56 | 262 | 0.0 | 0.0 | 0.00 | 0.00 | 0.00 | 86 | 1021.4 |
| 20260901232744 | 56 | 262 | 0.0 | 0.0 | 0.00 | 0.00 | 0.00 | 85 | 1021.4 |
| 20260901231746 | 56 | 262 | 0.0 | 0.0 | 0.00 | 0.00 | 0.00 | 85 | 1021.4 |
| 20260901230745 | 56 | 262 | 0.0 | 0.0 | 0.00 | 0.00 | 0.00 | 83 | 1021.4 |
| 20260901225745 | 57 | 262 | 0.0 | 0.0 | 0.00 | 0.00 | 0.00 | 83 | 1021.5 |
| 20260901224745 | 57 | 262 | 0.0 | 1.0 | 0.00 | 0.00 | 0.00 | 83 | 1021.5 |
| 20260901223744 | 57 | 262 | 0.0 | 0.0 | 0.00 | 0.00 | 0.00 | 83 | 1021.4 |
| 20260901222746 | 57 | 262 | 0.0 | 0.0 | 0.00 | 0.00 | 0.00 | 83 | 1021.4 |
| 20260901221746 | 57 | 262 | 0.0 | 0.0 | 0.00 | 0.00 | 0.00 | 83 | 1021.4 |
| 20260901220745 | 57 | 262 | 0.0 | 0.0 | 0.00 | 0.00 | 0.00 | 83 | 1021.5 |
| 20260901215745 | 58 | 262 | 0.0 | 0.0 | 0.00 | 0.00 | 0.00 | 82 | 1021.3 |
| 20260901214744 | 58 | 262 | 0.0 | 0.0 | 0.00 | 0.00 | 0.00 | 82 | 1021.4 |
| 20260901213744 | 58 | 262 | 0.0 | 0.0 | 0.00 | 0.00 | 0.00 | 82 | 1021.5 |
| 20260901212746 | 58 | 262 | 0.0 | 0.0 | 0.00 | 0.00 | 0.00 | 79 | 1021.3 |
| 20260901211746 | 59 | 262 | 0.0 | 0.0 | 0.00 | 0.00 | 0.00 | 79 | 1021.2 |
| 20260901210745 | 59 | 262 | 0.0 | 0.0 | 0.00 | 0.00 | 0.00 | 78 | 1021.2 |
| 20260901205745 | 60 | 262 | 0.0 | 0.0 | 0.00 | 0.00 | 0.00 | 76 | 1021.3 |
| 20260901204746 | 60 | 262 | 0.0 | 0.0 | 0.00 | 0.00 | 0.00 | 76 | 1021.1 |
| 20260901203745 | 60 | 262 | 0.0 | 0.0 | 0.00 | 0.00 | 0.00 | 75 | 1021.2 |
| 20260901202745 | 61 | 262 | 0.0 | 0.0 | 0.00 | 0.00 | 0.00 | 74 | 1021.2 |
| 20260901201745 | 62 | 262 | 0.0 | 0.0 | 0.00 | 0.00 | 0.00 | 73 | 1021.1 |
| 20260901200745 | 62 | 262 | 0.0 | 0.0 | 0.00 | 0.00 | 0.00 | 72 | 1021.0 |
| 20260901195744 | 63 | 262 | 0.0 | 0.0 | 0.00 | 0.00 | 0.00 | 70 | 1021.0 |
| 20260901194744 | 64 | 262 | 0.0 | 0.0 | 0.00 | 0.00 | 0.00 | 68 | 1021.0 |
| 20260901193746 | 64 | 262 | 0.0 | 0.0 | 0.00 | 0.00 | 0.00 | 67 | 1021.0 |
| 20260901192746 | 65 | 262 | 0.0 | 0.0 | 0.00 | 0.00 | 0.00 | 67 | 1020.8 |
| 20260901191746 | 65 | 262 | 0.0 | 1.0 | 0.00 | 0.00 | 0.00 | 66 | 1020.7 |
| 20260901190745 | 65 | 262 | 0.0 | 0.0 | 0.00 | 0.00 | 0.00 | 66 | 1020.7 |
| 20260901185745 | 65 | 262 | 0.0 | 0.0 | 0.00 | 0.00 | 0.00 | 65 | 1020.5 |
| 20260901184745 | 66 | 262 | 0.0 | 1.0 | 0.00 | 0.00 | 0.00 | 63 | 1020.5 |
| 20260901183744 | 66 | 262 | 0.0 | 0.0 | 0.00 | 0.00 | 0.00 | 63 | 1020.4 |
| 20260901182746 | 67 | 262 | 0.0 | 0.0 | 0.00 | 0.00 | 0.00 | 62 | 1020.2 |
| 20260901181745 | 67 | 262 | 0.0 | 1.0 | 0.00 | 0.00 | 0.00 | 61 | 1020.1 |
| 20260901180745 | 68 | 262 | 0.0 | 0.0 | 0.00 | 0.00 | 0.00 | 60 | 1020.0 |
| 20260901175745 | 69 | 262 | 0.0 | 0.0 | 0.00 | 0.00 | 0.00 | 59 | 1020.0 |
| 20260901174745 | 69 | 262 | 0.0 | 0.0 | 0.00 | 0.00 | 0.00 | 58 | 1019.8 |
| 20260901173744 | 70 | 262 | 0.0 | 1.0 | 0.00 | 0.00 | 0.00 | 56 | 1019.7 |
| 20260901172744 | 71 | 262 | 0.0 | 2.0 | 0.00 | 0.00 | 0.00 | 54 | 1019.8 |
| 20260901171746 | 72 | 260 | 1.0 | 2.0 | 0.00 | 0.00 | 0.00 | 52 | 1019.8 |
| 20260901170746 | 73 | 16 | 0.0 | 2.0 | 0.00 | 0.00 | 0.00 | 51 | 1019.9 |
| 20260901165745 | 73 | 32 | 1.0 | 2.0 | 0.00 | 0.00 | 0.00 | 52 | 1019.9 |
| 20260901164745 | 73 | 44 | 1.0 | 3.0 | 0.00 | 0.00 | 0.00 | 51 | 1019.9 |
| 20260901163745 | 73 | 356 | 1.0 | 4.0 | 0.00 | 0.00 | 0.00 | 51 | 1019.9 |
| 20260901162744 | 73 | 36 | 0.0 | 4.0 | 0.00 | 0.00 | 0.00 | 51 | 1019.9 |
| 20260901161744 | 74 | 66 | 0.0 | 2.0 | 0.00 | 0.00 | 0.00 | 50 | 1019.9 |
| 20260901160744 | 74 | 286 | 0.0 | 3.0 | 0.00 | 0.00 | 0.00 | 50 | 1019.9 |
| 20260901155746 | 75 | 245 | 1.0 | 4.0 | 0.00 | 0.00 | 0.00 | 48 | 1019.8 |
| 20260901154745 | 75 | 322 | 0.0 | 3.0 | 0.00 | 0.00 | 0.00 | 49 | 1019.8 |
| 20260901153745 | 74 | 359 | 1.0 | 3.0 | 0.00 | 0.00 | 0.00 | 50 | 1019.7 |
| 20260901152745 | 74 | 337 | 0.0 | 3.0 | 0.00 | 0.00 | 0.00 | 50 | 1019.7 |
| 20260901151745 | 75 | 336 | 1.0 | 4.0 | 0.00 | 0.00 | 0.00 | 50 | 1019.6 |
| 20260901150745 | 75 | 214 | 2.0 | 3.0 | 0.00 | 0.00 | 0.00 | 50 | 1019.6 |
| 20260901145745 | 74 | 324 | 1.0 | 3.0 | 0.00 | 0.00 | 0.00 | 50 | 1019.6 |
| 20260901144745 | 75 | 345 | 1.0 | 2.0 | 0.00 | 0.00 | 0.00 | 50 | 1019.7 |
| 20260901143744 | 75 | 279 | 0.0 | 4.0 | 0.00 | 0.00 | 0.00 | 51 | 1019.7 |
| 20260901142744 | 76 | 340 | 1.0 | 2.0 | 0.00 | 0.00 | 0.00 | 49 | 1019.7 |
| 20260901141744 | 76 | 320 | 1.0 | 3.0 | 0.00 | 0.00 | 0.00 | 50 | 1019.8 |
| 20260901140744 | 75 | 317 | 2.0 | 5.0 | 0.00 | 0.00 | 0.00 | 51 | 1019.8 |
| 20260901135745 | 76 | 299 | 1.0 | 4.0 | 0.00 | 0.00 | 0.00 | 48 | 1019.7 |
| 20260901134745 | 78 | 205 | 2.0 | 6.0 | 0.00 | 0.00 | 0.00 | 47 | 1019.7 |
| 20260901133745 | 77 | 246 | 1.0 | 4.0 | 0.00 | 0.00 | 0.00 | 48 | 1019.8 |
| 20260901132745 | 76 | 8 | 2.0 | 5.0 | 0.00 | 0.00 | 0.00 | 50 | 1019.9 |
| 20260901131745 | 75 | 211 | 1.0 | 3.0 | 0.00 | 0.00 | 0.00 | 52 | 1020.0 |
| 20260901130744 | 74 | 227 | 2.0 | 6.0 | 0.00 | 0.00 | 0.00 | 52 | 1020.1 |
| 20260901125744 | 75 | 161 | 4.0 | 11.0 | 0.00 | 0.00 | 0.00 | 51 | 1020.3 |
| 20260901124745 | 75 | 325 | 0.0 | 3.0 | 0.00 | 0.00 | 0.00 | 55 | 1020.4 |
| 20260901123745 | 74 | 211 | 2.0 | 4.0 | 0.00 | 0.00 | 0.00 | 56 | 1020.4 |
| 20260901122745 | 73 | 247 | 1.0 | 4.0 | 0.00 | 0.00 | 0.00 | 55 | 1020.4 |
| 20260901121746 | 73 | 268 | 0.0 | 1.0 | 0.00 | 0.00 | 0.00 | 58 | 1020.4 |
| 20260901120746 | 74 | 267 | 0.0 | 3.0 | 0.00 | 0.00 | 0.00 | 57 | 1020.5 |
| 20260901115746 | 75 | 332 | 1.0 | 4.0 | 0.00 | 0.00 | 0.00 | 56 | 1020.5 |
| 20260901114746 | 74 | 318 | 1.0 | 5.0 | 0.00 | 0.00 | 0.00 | 57 | 1020.6 |
| 20260901113747 | 73 | 114 | 1.0 | 3.0 | 0.00 | 0.00 | 0.00 | 59 | 1020.7 |
| 20260901112747 | 72 | 346 | 0.0 | 4.0 | 0.00 | 0.00 | 0.00 | 61 | 1020.7 |
| 20260901111747 | 71 | 281 | 0.0 | 4.0 | 0.00 | 0.00 | 0.00 | 62 | 1020.7 |
| 20260901110747 | 71 | 325 | 1.0 | 6.0 | 0.00 | 0.00 | 0.00 | 61 | 1020.8 |
| 20260901105747 | 72 | 331 | 1.0 | 4.0 | 0.00 | 0.00 | 0.00 | 59 | 1020.7 |
| 20260901104746 | 74 | 284 | 1.0 | 4.0 | 0.00 | 0.00 | 0.00 | 57 | 1020.6 |
| 20260901103746 | 74 | 278 | 1.0 | 10.0 | 0.00 | 0.00 | 0.00 | 56 | 1020.6 |
| 20260901102746 | 74 | 232 | 2.0 | 5.0 | 0.00 | 0.00 | 0.00 | 57 | 1020.7 |
| 20260901101747 | 72 | 205 | 3.0 | 7.0 | 0.00 | 0.00 | 0.00 | 59 | 1020.7 |
| 20260901100747 | 72 | 171 | 6.0 | 12.0 | 0.00 | 0.00 | 0.00 | 59 | 1020.8 |
| 20260901095747 | 72 | 227 | 3.0 | 7.0 | 0.00 | 0.00 | 0.00 | 61 | 1020.8 |
| 20260901094747 | 72 | 248 | 2.0 | 4.0 | 0.00 | 0.00 | 0.00 | 62 | 1021.0 |
| 20260901093746 | 72 | 196 | 1.0 | 8.0 | 0.00 | 0.00 | 0.00 | 63 | 1021.0 |
| 20260901092746 | 71 | 285 | 2.0 | 5.0 | 0.00 | 0.00 | 0.00 | 64 | 1021.1 |
| 20260901091746 | 71 | 237 | 1.0 | 4.0 | 0.00 | 0.00 | 0.00 | 64 | 1021.1 |
| 20260901090747 | 71 | 217 | 0.0 | 3.0 | 0.00 | 0.00 | 0.00 | 65 | 1021.2 |
| 20260901085747 | 71 | 237 | 1.0 | 4.0 | 0.00 | 0.00 | 0.00 | 65 | 1021.2 |
| 20260901084747 | 71 | 272 | 1.0 | 3.0 | 0.00 | 0.00 | 0.00 | 64 | 1021.3 |
| 20260901083747 | 70 | 278 | 1.0 | 2.0 | 0.00 | 0.00 | 0.00 | 66 | 1021.2 |
| 20260901082747 | 69 | 237 | 2.0 | 3.0 | 0.00 | 0.00 | 0.00 | 68 | 1021.3 |
| 20260901081746 | 68 | 203 | 1.0 | 4.0 | 0.00 | 0.00 | 0.00 | 70 | 1021.3 |
| 20260901080746 | 67 | 251 | 1.0 | 3.0 | 0.00 | 0.00 | 0.00 | 72 | 1021.2 |
| 20260901075747 | 67 | 181 | 0.0 | 3.0 | 0.00 | 0.00 | 0.00 | 74 | 1021.1 |
| 20260901074747 | 66 | 191 | 1.0 | 2.0 | 0.00 | 0.00 | 0.00 | 73 | 1021.1 |
| 20260901073747 | 66 | 153 | 3.0 | 4.0 | 0.00 | 0.00 | 0.00 | 71 | 1021.0 |
| 20260901072747 | 65 | 255 | 0.0 | 3.0 | 0.00 | 0.00 | 0.00 | 74 | 1021.0 |
| 20260901071746 | 64 | 253 | 1.0 | 3.0 | 0.00 | 0.00 | 0.00 | 75 | 1021.0 |
| 20260901070746 | 64 | 253 | 2.0 | 4.0 | 0.00 | 0.00 | 0.00 | 76 | 1021.1 |
| 20260901065747 | 63 | 210 | 1.0 | 3.0 | 0.00 | 0.00 | 0.00 | 77 | 1021.1 |
| 20260901064747 | 62 | 189 | 1.0 | 2.0 | 0.00 | 0.00 | 0.00 | 80 | 1021.0 |
| 20260901063747 | 60 | 187 | 0.0 | 2.0 | 0.00 | 0.00 | 0.00 | 82 | 1021.0 |
| 20260901062747 | 60 | 187 | 0.0 | 0.0 | 0.00 | 0.00 | 0.00 | 83 | 1021.0 |
| 20260901061746 | 59 | 187 | 0.0 | 2.0 | 0.00 | 0.00 | 0.00 | 83 | 1021.0 |
| 20260901060746 | 59 | 187 | 0.0 | 2.0 | 0.00 | 0.00 | 0.00 | 84 | 1021.1 |
| 20260901055746 | 58 | 187 | 0.0 | 0.0 | 0.00 | 0.00 | 0.00 | 85 | 1021.1 |
| 20260901054747 | 57 | 187 | 0.0 | 1.0 | 0.00 | 0.00 | 0.00 | 86 | 1021.0 |
| 20260901053747 | 57 | 187 | 0.0 | 0.0 | 0.00 | 0.00 | 0.00 | 86 | 1020.9 |
| 20260901052747 | 57 | 187 | 0.0 | 0.0 | 0.00 | 0.00 | 0.00 | 86 | 1020.9 |
| 20260901051747 | 56 | 186 | 0.0 | 1.0 | 0.00 | 0.00 | 0.00 | 87 | 1020.7 |
| 20260901050747 | 56 | 186 | 0.0 | 0.0 | 0.00 | 0.00 | 0.00 | 87 | 1020.8 |
| 20260901045747 | 56 | 186 | 0.0 | 0.0 | 0.00 | 0.00 | 0.00 | 87 | 1020.8 |
| 20260901044747 | 56 | 186 | 0.0 | 0.0 | 0.00 | 0.00 | 0.00 | 87 | 1020.8 |
| 20260901043746 | 56 | 186 | 0.0 | 0.0 | 0.00 | 0.00 | 0.00 | 87 | 1020.7 |
| 20260901042746 | 56 | 186 | 0.0 | 0.0 | 0.00 | 0.00 | 0.00 | 87 | 1020.9 |
| 20260901041747 | 55 | 186 | 0.0 | 0.0 | 0.00 | 0.00 | 0.00 | 86 | 1020.9 |
| 20260901040747 | 55 | 186 | 0.0 | 0.0 | 0.00 | 0.00 | 0.00 | 86 | 1020.8 |
| 20260901035747 | 55 | 186 | 0.0 | 0.0 | 0.00 | 0.00 | 0.00 | 85 | 1020.8 |
| 20260901034747 | 56 | 186 | 0.0 | 0.0 | 0.00 | 0.00 | 0.00 | 85 | 1020.8 |
| 20260901033746 | 56 | 186 | 0.0 | 0.0 | 0.00 | 0.00 | 0.00 | 85 | 1020.7 |
| 20260901032746 | 55 | 186 | 0.0 | 0.0 | 0.00 | 0.00 | 0.00 | 84 | 1020.7 |
| 20260901031746 | 56 | 186 | 0.0 | 0.0 | 0.00 | 0.00 | 0.00 | 84 | 1020.7 |
| 20260901030746 | 56 | 186 | 0.0 | 0.0 | 0.00 | 0.00 | 0.00 | 84 | 1020.8 |
| 20260901025747 | 56 | 186 | 0.0 | 0.0 | 0.00 | 0.00 | 0.00 | 83 | 1020.9 |
| 20260901024747 | 56 | 186 | 0.0 | 0.0 | 0.00 | 0.00 | 0.00 | 83 | 1020.7 |
| 20260901023747 | 56 | 186 | 0.0 | 0.0 | 0.00 | 0.00 | 0.00 | 83 | 1020.7 |
| 20260901022746 | 57 | 186 | 0.0 | 1.0 | 0.00 | 0.00 | 0.00 | 83 | 1020.8 |
| 20260901021746 | 57 | 186 | 0.0 | 0.0 | 0.00 | 0.00 | 0.00 | 82 | 1020.7 |
| 20260901020746 | 57 | 186 | 0.0 | 0.0 | 0.00 | 0.00 | 0.00 | 81 | 1020.8 |
| 20260901015746 | 58 | 186 | 0.0 | 0.0 | 0.00 | 0.01 | 0.00 | 80 | 1020.7 |
| 20260901014746 | 58 | 186 | 0.0 | 0.0 | 0.00 | 0.01 | 0.00 | 80 | 1020.7 |
| 20260901013745 | 58 | 186 | 0.0 | 0.0 | 0.00 | 0.01 | 0.00 | 79 | 1020.6 |
| 20260901012745 | 59 | 186 | 0.0 | 1.0 | 0.00 | 0.01 | 0.00 | 79 | 1020.7 |
| 20260901011747 | 59 | 186 | 0.0 | 3.0 | 0.00 | 0.01 | 0.00 | 78 | 1020.6 |
| 20260901010747 | 59 | 187 | 0.0 | 3.0 | 0.00 | 0.01 | 0.00 | 77 | 1020.8 |
| 20260901005747 | 60 | 185 | 1.0 | 3.0 | 0.00 | 0.13 | 0.00 | 77 | 1020.6 |
| 20260901004747 | 60 | 193 | 2.0 | 3.0 | 0.00 | 0.13 | 0.00 | 76 | 1020.5 |
| 20260901003747 | 60 | 175 | 1.0 | 3.0 | 0.00 | 0.13 | 0.00 | 76 | 1020.6 |
| 20260901002746 | 60 | 182 | 0.0 | 2.0 | 0.00 | 0.13 | 0.00 | 76 | 1020.4 |
| 20260901001746 | 60 | 181 | 2.0 | 3.0 | 0.00 | 0.13 | 0.00 | 75 | 1020.4 |